[[{"header":{"parameterUnit":"m.s-1","parameterCategory":1,"la1":30.2991,"la2":30.254,"lo1":-89.0895,"lo2":-89.0444,"dy":0.0017,"dx":0.0017,"nx":28,"ny":28,"refTime":"2023-09-02T09:00:00:Z","depth":0,"parameterNumber":2,"parameterNumberName":"U-component_of_WINDS"},"data":[0,0,0,0,0,0,0,0,0,0,0,0,0,0,0,0,0,0,0,0,0,0,0,0,0,0,0,0,0,0,0,0,0,0,0,0,0,0,0,0,0,0,0,0,0,0,0,0,0,0,0,0,0,0,0,0,0,0,-0.126,-0.1258,0,-0.115,-0.1149,-0.1147,-0.1147,-0.1149,-0.115,-0.1151,-0.1032,-0.1028,-0.1023,0,0,0,0,0,0,0,0,0,0,0,0,0,-0.1463,-0.1459,-0.126,-0.1258,-0.1257,-0.115,-0.1149,-0.1147,-0.1147,-0.1149,-0.115,-0.1152,-0.1034,-0.1028,-0.1023,0,0,0,0,0,0,0,0,0,0,0,0,0,-0.1366,-0.1458,-0.126,-0.1244,-0.1242,-0.115,-0.1149,-0.1147,-0.1147,-0.1149,-0.1151,-0.1153,-0.1035,-0.1029,-0.1022,-0.0937,0,0,-0.1002,-0.0999,0,0,0,0,0,0,0,0,-0.1371,-0.1358,-0.1248,-0.1245,-0.1242,-0.1165,-0.1177,-0.1076,-0.1146,-0.1182,-0.1151,-0.1154,-0.1074,-0.1064,-0.1039,-0.0932,-0.0927,-0.1001,-0.0997,-0.0994,-0.0992,0,0,0,0,0,0,0,-0.1378,-0.1363,-0.1216,-0.1246,-0.1243,-0.1241,-0.1229,-0.1157,-0.1117,-0.1179,-0.1179,-0.1167,-0.1073,-0.1045,-0.1036,-0.0925,-0.1001,-0.0995,-0.0991,-0.0988,-0.0741,-0.0739,0,0,0,0,0,0,-0.1389,-0.1369,-0.122,-0.1213,-0.1314,-0.1235,-0.1222,-0.1187,-0.1118,-0.111,-0.1165,-0.1167,-0.1056,-0.1044,-0.1032,-0.0927,-0.0994,-0.0988,-0.0984,-0.0744,-0.0741,-0.0738,0,0,0,0,0,0,-0.1393,-0.1376,-0.1224,-0.1291,-0.1271,-0.1229,-0.119,-0.1184,-0.1156,-0.1107,-0.1099,-0.1144,-0.1057,-0.1041,-0.0961,-0.0923,-0.0985,-0.0978,-0.0747,-0.0743,-0.0739,-0.0717,0,0,0,0,0,0,-0.1399,-0.1377,-0.1346,-0.129,-0.1268,-0.1157,-0.1188,-0.118,-0.1146,-0.1147,-0.1086,-0.1078,-0.1057,-0.0971,-0.0954,-0.0915,-0.0973,-0.075,-0.0745,-0.0741,-0.0721,-0.0713,-0.0707,0,0,0,0,0,-0.1406,-0.1343,-0.1344,-0.1326,-0.1228,-0.1155,-0.1142,-0.1122,-0.1143,-0.111,-0.1078,-0.108,-0.093,-0.0963,-0.0944,-0.0902,-0.0752,-0.0746,-0.0741,-0.0725,-0.0715,-0.0707,0,0,0,0,0,0,-0.1393,-0.1335,-0.1336,-0.1253,-0.1209,-0.1155,-0.1113,-0.1112,-0.106,-0.1063,-0.1038,-0.1024,-0.0944,-0.0915,-0.0953,-0.0815,-0.0843,-0.0834,-0.0837,-0.0828,-0.0821,-0.0829,-0.0967,0,0,0,0,0,-0.1381,-0.1328,-0.128,-0.1211,-0.1189,-0.1155,-0.1122,-0.1111,-0.1063,-0.1044,-0.1006,-0.0958,-0.09,-0.0863,-0.0807,-0.0718,-0.0703,-0.0679,-0.0672,-0.0666,-0.0657,-0.0607,-0.0595,-0.072,-0.072,-0.072,0,0,-0.1354,-0.1316,-0.1284,-0.1207,-0.1172,-0.1116,-0.1139,-0.1079,-0.1037,-0.1034,-0.0957,-0.0927,-0.0872,-0.0787,-0.0747,-0.076,-0.062,-0.0659,-0.0655,-0.0649,-0.06,-0.0588,-0.0578,-0.0716,-0.0717,-0.0717,0,0,-0.1277,-0.1244,-0.1183,-0.1147,-0.1094,-0.1072,-0.1057,-0.1003,-0.0984,-0.0907,-0.0903,-0.0852,-0.0753,-0.0713,-0.068,-0.0589,-0.0587,-0.0571,-0.0532,-0.0483,-0.0473,-0.0464,-0.043,-0.0419,-0.0563,-0.0563,-0.0563,0,-0.125,-0.1168,-0.1151,-0.1091,-0.1056,-0.1054,-0.0991,-0.0956,-0.0887,-0.0862,-0.0878,-0.0754,-0.0716,-0.0621,-0.0599,-0.0573,-0.0554,-0.0577,-0.0476,-0.0467,-0.0459,-0.0426,-0.0413,-0.0561,-0.0561,-0.0561,-0.0562,0,-0.1137,-0.108,-0.1036,-0.0972,-0.0932,-0.0871,-0.0842,-0.0804,-0.0796,-0.0772,-0.0692,-0.0647,-0.0582,-0.0559,-0.0549,-0.0462,-0.0472,-0.0482,-0.0509,-0.0445,-0.0414,-0.0402,-0.0558,-0.0559,-0.056,-0.056,0,0,-0.1047,-0.0975,-0.0959,-0.0929,-0.0871,-0.0825,-0.0763,-0.0701,-0.0669,-0.0621,-0.0566,-0.0483,-0.0493,-0.0455,-0.0441,-0.0399,-0.0328,-0.0414,-0.0413,-0.0399,-0.0227,-0.0219,-0.0205,-0.0327,-0.0325,-0.0323,-0.0231,0,-0.0963,-0.0855,-0.0838,-0.0742,-0.0688,-0.0685,-0.063,-0.0587,-0.0563,-0.0512,-0.0484,-0.0425,-0.0443,-0.042,-0.0378,-0.0346,-0.0293,-0.0352,-0.0274,-0.0272,-0.0288,-0.0189,-0.018,-0.0095,-0.0219,-0.0217,-0.0216,0,-0.085,-0.0801,-0.0701,-0.065,-0.0626,-0.0578,-0.052,-0.0472,-0.0423,-0.0408,-0.0366,-0.0358,-0.0291,-0.0323,-0.0229,-0.027,-0.0237,-0.0216,-0.0212,-0.0203,-0.0239,-0.0176,-0.0068,-0.0055,-0.0197,-0.0198,-0.0199,0,-0.0793,-0.0702,-0.0631,-0.0605,-0.0544,-0.051,-0.0482,-0.0436,-0.04,-0.0348,-0.0324,-0.0265,-0.0232,-0.0185,-0.016,-0.0185,-0.0068,-0.0097,-0.0051,-0.0052,-0.0025,-0.0027,0.009,-0.0007,-0.0007,-0.0007,-0.0007,0,-0.07,-0.0638,-0.0604,-0.056,-0.049,-0.047,-0.0401,-0.0374,-0.0332,-0.0281,-0.0274,-0.0225,-0.0196,-0.0142,-0.0122,-0.0047,-0.0032,-0.0016,-0.0011,-0.0016,-0.0018,0.0007,0.0002,-0.0004,-0.0004,-0.0005,-0.0006,0,-0.0625,-0.06,-0.0521,-0.047,-0.0456,-0.0406,-0.0361,-0.0317,-0.0293,-0.0228,-0.0212,-0.0173,-0.011,-0.0081,-0.0002,0.0012,0.0098,0.0098,0.008,0.0082,0.0127,0.0123,0.0265,0.0286,0.0174,0.0175,0.0176,0,-0.0567,-0.0519,-0.0464,-0.043,-0.0402,-0.0348,-0.0312,-0.029,-0.0252,-0.0193,-0.0155,-0.0092,-0.004,0.0061,0.0097,0.0158,0.0161,0.0207,0.017,0.0164,0.0163,0.016,0.0166,0.0214,0.0215,0.0216,0.0216,0,-0.0465,-0.0456,-0.0405,-0.035,-0.0307,-0.0262,-0.0218,-0.019,-0.0161,-0.0118,-0.0055,-0.0015,0.0064,0.0128,0.019,0.0221,0.0225,0.0227,0.0241,0.0237,0.0226,0.0234,0.0099,0.0224,0.0223,0.0223,0.0222,0.0222,-0.0396,-0.0354,-0.0308,-0.0252,-0.0217,-0.0175,-0.0131,-0.0103,-0.005,0.0015,0.0025,0.0093,0.0142,0.0226,0.0259,0.0315,0.0304,0.0324,0.033,0.0335,0.0338,0.0215,0.0326,0.0326,0.0326,0.0326,0.0325,0,-0.0293,-0.0265,-0.0213,-0.0152,-0.0107,-0.0111,-0.0062,-0.0024,0.0035,0.008,0.0129,0.0203,0.0264,0.0305,0.0367,0.0404,0.0407,0.042,0.0418,0.0425,0.0343,0.0325,0.0416,0.0416,0.0416,0.0416,0.0416,0.0416,-0.0235,-0.0163,-0.0148,-0.0059,-0.0029,0.0035,0.0064,0.0103,0.0138,0.0219,0.0269,0.0294,0.0338,0.0403,0.046,0.047,0.0494,0.0507,0.0518,0.044,0.0431,0.0422,0.0405,0.0512,0.0512,0.0596,0.0596,0.0597]},{"header":{"parameterUnit":"m.s-1","parameterCategory":1,"la1":30.2991,"la2":30.254,"lo1":-89.0895,"lo2":-89.0444,"dy":0.0017,"dx":0.0017,"nx":28,"ny":28,"refTime":"2023-09-02T09:00:00:Z","depth":0,"parameterNumber":3,"parameterNumberName":"V-component_of_WINDS"},"data":[0,0,0,0,0,0,0,0,0,0,0,0,0,0,0,0,0,0,0,0,0,0,0,0,0,0,0,0,0,0,0,0,0,0,0,0,0,0,0,0,0,0,0,0,0,0,0,0,0,0,0,0,0,0,0,0,0,0,0.0415,0.0413,0,0.0288,0.0286,0.0285,0.0154,0.0152,0.015,0.0148,0.0017,0.0016,0.0014,0,0,0,0,0,0,0,0,0,0,0,0,0,0.0542,0.054,0.0415,0.0413,0.0412,0.0288,0.0286,0.0285,0.0154,0.0152,0.0149,0.0147,0.0018,0.0016,0.0014,0,0,0,0,0,0,0,0,0,0,0,0,0,0.0458,0.054,0.0415,0.0332,0.0323,0.0288,0.0286,0.0284,0.0154,0.0152,0.0149,0.0146,0.0019,0.0016,0.0013,0.0051,0,0,0.0005,0.0004,0,0,0,0,0,0,0,0,0.0463,0.0453,0.0345,0.0337,0.0327,0.0234,0.0283,0.0206,0.0155,0.0218,0.0148,0.0145,0.0091,0.0083,0.0065,0.0045,0.0039,0.0005,0.0003,0.0002,0.0001,0,0,0,0,0,0,0,0.0469,0.0458,0.0364,0.0344,0.0333,0.03,0.0285,0.0268,0.0172,0.0213,0.0203,0.019,0.0086,0.0068,0.0061,0.0037,0.0005,0.0002,0.0001,-0.0,0.0038,0.0041,0,0,0,0,0,0,0.0488,0.0464,0.0369,0.0361,0.039,0.03,0.0283,0.0267,0.0171,0.0154,0.0192,0.0184,0.0074,0.0064,0.0056,0.0091,0.0002,-0.0001,-0.0002,0.0036,0.0039,0.0042,0,0,0,0,0,0,0.0491,0.048,0.0374,0.041,0.0393,0.03,0.0283,0.0265,0.0247,0.0156,0.0138,0.0191,0.0071,0.0059,0.0052,0.0084,-0.0002,-0.0004,0.0033,0.0037,0.004,0.0164,0,0,0,0,0,0,0.0495,0.0482,0.0496,0.0411,0.0392,0.0374,0.0285,0.0265,0.0243,0.0231,0.015,0.0134,0.0068,0.0057,0.005,0.0079,-0.0006,0.0029,0.0034,0.0039,0.0156,0.0171,0.0184,0,0,0,0,0,0.05,0.0536,0.0498,0.0487,0.0408,0.0376,0.0365,0.0288,0.0246,0.0258,0.02,0.0137,0.0083,0.0057,0.0048,0.0077,0.0027,0.0033,0.0039,0.015,0.0168,0.0184,0,0,0,0,0,0,0.0628,0.0524,0.048,0.049,0.0443,0.0354,0.0367,0.0311,0.0275,0.0265,0.0171,0.0154,0.0157,0.0117,0.0091,0.0107,0.0046,0.005,0.0133,0.015,0.0164,0.0173,-0.0009,0,0,0,0,0,0.0657,0.0641,0.055,0.0568,0.0547,0.0462,0.0445,0.039,0.0337,0.0317,0.0257,0.0208,0.0179,0.0163,0.0132,0.015,0.0129,0.0165,0.018,0.0191,0.0196,0.02,0.0214,0.0061,0.0061,0.0061,0,0,0.0718,0.0659,0.0654,0.0592,0.0549,0.0533,0.0446,0.0433,0.0419,0.0314,0.0303,0.0259,0.0197,0.0203,0.0202,0.0169,0.0233,0.0199,0.0209,0.0207,0.0207,0.0222,0.0235,0.0065,0.0065,0.0064,0,0,0.0819,0.0774,0.0782,0.0741,0.0677,0.062,0.0622,0.0542,0.0507,0.0495,0.0415,0.0398,0.0352,0.0311,0.0284,0.0369,0.0309,0.0362,0.0434,0.0439,0.0451,0.0461,0.0489,0.0501,0.0366,0.0367,0.0367,0,0.0902,0.0875,0.0794,0.0785,0.0759,0.0664,0.067,0.0634,0.0564,0.0548,0.0512,0.045,0.0402,0.0395,0.0416,0.0398,0.0396,0.0369,0.0456,0.0465,0.0474,0.0499,0.051,0.0373,0.0373,0.0372,0.0371,0,0.0979,0.0962,0.0976,0.091,0.0886,0.0885,0.0803,0.0788,0.0735,0.0682,0.0669,0.0609,0.0563,0.0557,0.0506,0.0543,0.0523,0.0474,0.0409,0.0496,0.0518,0.0528,0.0383,0.0381,0.0379,0.0377,0,0,0.1157,0.1045,0.1051,0.1019,0.0941,0.0926,0.0921,0.0875,0.0864,0.0818,0.081,0.0772,0.0725,0.0694,0.0637,0.0642,0.071,0.0591,0.0588,0.0613,0.0744,0.0781,0.0794,0.0671,0.0672,0.0674,0.0748,0,0.1243,0.1227,0.1153,0.1159,0.1141,0.1049,0.1044,0.0995,0.0945,0.0921,0.0865,0.0839,0.078,0.0761,0.0762,0.0702,0.0735,0.0696,0.066,0.066,0.0676,0.0806,0.0845,0.0918,0.0757,0.0758,0.0759,0,0.1341,0.1301,0.1305,0.1226,0.1215,0.1212,0.1164,0.1143,0.1085,0.1048,0.1014,0.095,0.0938,0.0879,0.086,0.0835,0.0816,0.0784,0.0785,0.0777,0.0714,0.0799,0.094,0.0951,0.0773,0.0772,0.0771,0,0.1467,0.1415,0.141,0.1386,0.1294,0.1293,0.1255,0.1194,0.1171,0.1129,0.1113,0.1071,0.1047,0.1014,0.094,0.0905,0.0928,0.0864,0.0895,0.0897,0.0902,0.0903,0.104,0.0895,0.0894,0.0894,0.0894,0,0.157,0.1575,0.1465,0.1462,0.1465,0.1379,0.1384,0.1337,0.1284,0.1269,0.1188,0.1175,0.1078,0.1055,0.0996,0.0987,0.0978,0.0946,0.093,0.0952,0.0956,0.0937,0.0929,0.0897,0.0896,0.0896,0.0895,0,0.1711,0.1637,0.1625,0.1539,0.1518,0.1523,0.1449,0.1442,0.1387,0.1368,0.1359,0.1272,0.124,0.1163,0.111,0.107,0.1076,0.1048,0.1096,0.1085,0.112,0.1117,0.1248,0.126,0.111,0.1111,0.1113,0,0.178,0.1782,0.1696,0.168,0.1645,0.1621,0.1597,0.1513,0.1491,0.1424,0.1425,0.1386,0.135,0.1302,0.1233,0.1192,0.1161,0.121,0.1154,0.1176,0.1159,0.1159,0.1157,0.1222,0.1224,0.1226,0.1227,0,0.191,0.1873,0.1842,0.1798,0.1772,0.1733,0.1689,0.1681,0.1586,0.1565,0.1531,0.1503,0.1449,0.141,0.1358,0.1317,0.1256,0.1246,0.125,0.1271,0.1298,0.1281,0.1127,0.1242,0.1241,0.124,0.1239,0.1238,0.2015,0.2011,0.195,0.1917,0.1876,0.1837,0.1825,0.1769,0.1739,0.1688,0.164,0.161,0.155,0.1474,0.1437,0.1411,0.138,0.1388,0.1389,0.1391,0.14,0.1304,0.1402,0.1401,0.1401,0.14,0.14,0,0.2138,0.2094,0.2065,0.2007,0.1981,0.1926,0.1875,0.1857,0.1831,0.1781,0.1747,0.1707,0.1669,0.1598,0.1553,0.1546,0.1517,0.1537,0.1535,0.1526,0.1432,0.1431,0.1561,0.1561,0.1561,0.1561,0.1561,0.1561,0.2199,0.219,0.2146,0.2115,0.207,0.204,0.2015,0.1978,0.1937,0.1896,0.1864,0.1818,0.1758,0.1708,0.1671,0.165,0.1637,0.1666,0.1637,0.1549,0.1533,0.1519,0.1518,0.1664,0.1664,0.1733,0.1733,0.1734]}]]